TimeCDT,TemperatureF,Dew PointF,Humidity,Sea Level PressureIn,VisibilityMPH,Wind Direction,Wind SpeedMPH,Gust SpeedMPH,PrecipitationIn,Events,Conditions,WindDirDegrees,DateUTC
12:15 AM,59.0,51.8,77,30.16,10.0,NNW,8.1,-,N/A,,Clear,330,2013-07-01 05:15:00
12:35 AM,57.2,51.8,82,30.16,10.0,NNW,8.1,-,N/A,,Clear,330,2013-07-01 05:35:00
12:55 AM,57.2,51.8,82,30.16,10.0,NNW,6.9,-,N/A,,Clear,330,2013-07-01 05:55:00
1:15 AM,57.2,51.8,82,30.17,9.0,NNW,6.9,-,N/A,,Clear,330,2013-07-01 06:15:00
1:35 AM,57.2,51.8,82,30.17,9.0,NNW,6.9,-,N/A,,Clear,330,2013-07-01 06:35:00
1:55 AM,57.2,51.8,82,30.17,9.0,NNW,5.8,-,N/A,,Clear,340,2013-07-01 06:55:00
2:15 AM,57.2,51.8,82,30.18,9.0,NNW,5.8,-,N/A,,Clear,330,2013-07-01 07:15:00
2:35 AM,57.2,51.8,82,30.18,9.0,WNW,3.5,-,N/A,,Clear,300,2013-07-01 07:35:00
2:55 AM,57.2,51.8,82,30.18,9.0,WNW,3.5,-,N/A,,Clear,300,2013-07-01 07:55:00
3:15 AM,59.0,51.8,77,30.18,9.0,Calm,Calm,-,N/A,,Clear,0,2013-07-01 08:15:00
3:35 AM,57.2,50.0,77,30.18,10.0,NW,5.8,-,N/A,,Clear,310,2013-07-01 08:35:00
3:55 AM,53.6,50.0,88,30.19,8.0,Calm,Calm,-,N/A,,Clear,0,2013-07-01 08:55:00
4:15 AM,55.4,50.0,82,30.19,10.0,Calm,Calm,-,N/A,,Clear,0,2013-07-01 09:15:00
4:35 AM,57.2,51.8,82,30.19,10.0,WNW,4.6,-,N/A,,Clear,300,2013-07-01 09:35:00
4:55 AM,57.2,50.0,77,30.20,10.0,WSW,4.6,-,N/A,,Clear,240,2013-07-01 09:55:00
5:15 AM,57.2,50.0,77,30.20,10.0,WNW,4.6,-,N/A,,Clear,290,2013-07-01 10:15:00
5:35 AM,55.4,51.8,88,30.20,10.0,WNW,3.5,-,N/A,,Clear,290,2013-07-01 10:35:00
5:55 AM,55.4,50.0,82,30.21,7.0,West,4.6,-,N/A,,Clear,280,2013-07-01 10:55:00
6:15 AM,55.4,50.0,82,30.21,7.0,West,3.5,-,N/A,,Clear,280,2013-07-01 11:15:00
6:35 AM,55.4,51.8,88,30.21,7.0,West,5.8,-,N/A,,Clear,280,2013-07-01 11:35:00
6:55 AM,55.4,51.8,88,30.22,6.0,WNW,3.5,-,N/A,,Clear,300,2013-07-01 11:55:00
7:15 AM,57.2,53.6,88,30.22,6.0,WNW,4.6,-,N/A,,Clear,300,2013-07-01 12:15:00
7:35 AM,60.8,53.6,77,30.22,7.0,WNW,6.9,-,N/A,,Clear,300,2013-07-01 12:35:00
7:55 AM,60.8,55.4,82,30.22,7.0,WNW,8.1,-,N/A,,Clear,300,2013-07-01 12:55:00
8:15 AM,62.6,55.4,77,30.23,8.0,WNW,5.8,-,N/A,,Clear,290,2013-07-01 13:15:00
8:35 AM,64.4,55.4,73,30.23,8.0,WNW,3.5,-,N/A,,Clear,300,2013-07-01 13:35:00
8:55 AM,64.4,55.4,73,30.23,8.0,WNW,4.6,-,N/A,,Clear,290,2013-07-01 13:55:00
9:15 AM,66.2,55.4,68,30.24,8.0,NW,3.5,-,N/A,,Clear,310,2013-07-01 14:15:00
9:35 AM,68.0,55.4,64,30.23,9.0,WNW,3.5,-,N/A,,Clear,290,2013-07-01 14:35:00
9:55 AM,71.6,57.2,60,30.23,10.0,Calm,Calm,-,N/A,,Clear,0,2013-07-01 14:55:00
10:15 AM,71.6,57.2,60,30.23,10.0,NW,3.5,-,N/A,,Clear,320,2013-07-01 15:15:00
10:35 AM,73.4,57.2,57,30.23,10.0,NNE,3.5,-,N/A,,Clear,20,2013-07-01 15:35:00
10:55 AM,75.2,57.2,53,30.23,10.0,NNW,5.8,-,N/A,,Clear,340,2013-07-01 15:55:00
11:15 AM,77.0,53.6,44,30.23,10.0,ENE,3.5,-,N/A,,Clear,70,2013-07-01 16:15:00
11:35 AM,77.0,53.6,44,30.23,10.0,NE,6.9,-,N/A,,Clear,50,2013-07-01 16:35:00
11:55 AM,78.8,53.6,42,30.23,10.0,WNW,3.5,-,N/A,,Clear,300,2013-07-01 16:55:00
12:15 PM,77.0,44.6,32,30.23,10.0,North,3.5,-,N/A,,Clear,10,2013-07-01 17:15:00
12:35 PM,78.8,48.2,34,30.22,10.0,NE,6.9,-,N/A,,Clear,40,2013-07-01 17:35:00
12:55 PM,80.6,48.2,32,30.22,10.0,North,13.8,17.3,N/A,,Clear,10,2013-07-01 17:55:00
1:15 PM,80.6,48.2,32,30.22,10.0,NE,9.2,17.3,N/A,,Clear,50,2013-07-01 18:15:00
1:35 PM,80.6,48.2,32,30.21,10.0,NE,12.7,-,N/A,,Clear,40,2013-07-01 18:35:00
1:55 PM,78.8,46.4,32,30.21,9.0,NNE,6.9,-,N/A,,Clear,20,2013-07-01 18:55:00
2:15 PM,80.6,48.2,32,30.20,10.0,NE,10.4,-,N/A,,Clear,50,2013-07-01 19:15:00
2:35 PM,80.6,50.0,34,30.20,10.0,ENE,9.2,-,N/A,,Clear,60,2013-07-01 19:35:00
2:55 PM,80.6,48.2,32,30.20,10.0,Calm,Calm,-,N/A,,Clear,0,2013-07-01 19:55:00
3:15 PM,80.6,46.4,30,30.19,10.0,ENE,6.9,-,N/A,,Clear,60,2013-07-01 20:15:00
3:35 PM,82.4,48.2,30,30.19,10.0,North,9.2,-,N/A,,Clear,10,2013-07-01 20:35:00
3:55 PM,82.4,48.2,30,30.19,10.0,NNE,8.1,-,N/A,,Clear,30,2013-07-01 20:55:00
4:15 PM,82.4,48.2,30,30.18,10.0,NNE,8.1,-,N/A,,Clear,30,2013-07-01 21:15:00
4:35 PM,82.4,50.0,32,30.18,10.0,North,6.9,-,N/A,,Clear,10,2013-07-01 21:35:00
4:55 PM,82.4,50.0,32,30.17,10.0,NE,8.1,-,N/A,,Clear,40,2013-07-01 21:55:00
5:15 PM,82.4,48.2,30,30.17,10.0,NE,4.6,-,N/A,,Clear,40,2013-07-01 22:15:00
5:35 PM,82.4,50.0,32,30.17,10.0,North,8.1,-,N/A,,Clear,360,2013-07-01 22:35:00
5:55 PM,82.4,50.0,32,30.17,10.0,NNE,8.1,-,N/A,,Clear,30,2013-07-01 22:55:00
6:15 PM,80.6,51.8,37,30.17,7.0,NE,9.2,-,N/A,,Clear,40,2013-07-01 23:15:00
6:35 PM,80.6,53.6,39,30.16,10.0,ENE,8.1,-,N/A,,Clear,60,2013-07-01 23:35:00
6:55 PM,82.4,51.8,35,30.16,10.0,NNE,6.9,-,N/A,,Clear,20,2013-07-01 23:55:00
7:15 PM,80.6,53.6,39,30.16,10.0,NNE,6.9,-,N/A,,Clear,20,2013-07-02 00:15:00
7:35 PM,80.6,53.6,39,30.16,10.0,NNE,5.8,-,N/A,,Clear,20,2013-07-02 00:35:00
7:55 PM,80.6,55.4,42,30.16,8.0,North,4.6,-,N/A,,Clear,360,2013-07-02 00:55:00
8:15 PM,77.0,57.2,50,30.16,10.0,NNW,5.8,-,N/A,,Clear,340,2013-07-02 01:15:00
8:35 PM,75.2,59.0,57,30.16,10.0,North,4.6,-,N/A,,Clear,350,2013-07-02 01:35:00
8:55 PM,73.4,59.0,61,30.16,10.0,NNW,5.8,-,N/A,,Clear,330,2013-07-02 01:55:00
9:15 PM,71.6,57.2,60,30.16,9.0,NW,5.8,-,N/A,,Clear,320,2013-07-02 02:15:00
9:35 PM,69.8,57.2,64,30.16,10.0,NNW,5.8,-,N/A,,Clear,330,2013-07-02 02:35:00
9:55 PM,69.8,57.2,64,30.16,10.0,NW,5.8,-,N/A,,Clear,320,2013-07-02 02:55:00
10:15 PM,68.0,57.2,68,30.16,10.0,NW,6.9,-,N/A,,Clear,310,2013-07-02 03:15:00
10:35 PM,68.0,57.2,68,30.16,10.0,WNW,8.1,-,N/A,,Clear,300,2013-07-02 03:35:00
10:55 PM,64.4,57.2,77,30.16,10.0,WNW,8.1,-,N/A,,Clear,300,2013-07-02 03:55:00
11:15 PM,64.4,57.2,77,30.16,10.0,NW,9.2,-,N/A,,Clear,310,2013-07-02 04:15:00
11:35 PM,64.4,55.4,73,30.16,10.0,NW,8.1,-,N/A,,Clear,310,2013-07-02 04:35:00
11:55 PM,64.4,55.4,73,30.16,10.0,NW,8.1,-,N/A,,Clear,320,2013-07-02 04:55:00